Regional Weather Roundup
Issued by NWS Upton, NY

Current Version | Previous Version | Graphics & Text | Print | Product List | Glossary Off
Versions: 1 2 3 4 5 6 7 8 9 10 11 12 13 14 15 16 17 18 19 20 21 22 23 24 25 26 27 28 29 30 31 32 33 34 35 36 37 38 39 40 41 42 43 44 45 46 47 48 49 50

000
ASUS41 KOKX 190107
RWROKX

REGIONAL WEATHER ROUNDUP
NATIONAL WEATHER SERVICE NEW YORK NY
900 PM EDT SAT APR 18 2015

NOTE: "FAIR" INDICATES FEW OR NO CLOUDS BELOW 12,000 FEET WITH NO
SIGNIFICANT WEATHER AND/OR OBSTRUCTIONS TO VISIBILITY.

NYZ071-072-176-178-NJZ106-104-190200-
NEW YORK CITY METRO AREA


CITY           SKY/WX    TMP DP  RH WIND       PRES   REMARKS
CENTRAL PARK   CLEAR     73  32  22 N9        29.97R
LAGUARDIA APRT PTCLDY    71  33  24 N16G24    29.93R
KENNEDY INTL   MOCLDY    58  44  60 CALM      29.95R
NEWARK/LIBERTY PTCLDY    75  35  23 N24G32    29.94R
BRNX BOT. GARD   N/A     72  32  23 N5        29.97R
TETERBORO      CLEAR     73  31  21 N15G24    29.94R
$$

NYZ177-179-078>081-190200-
LONG ISLAND NEW YORK

CITY           SKY/WX    TMP DP  RH WIND       PRES   REMARKS
FARMINGDALE    CLEAR     59  44  57 CALM      29.95R
ISLIP          PTCLDY    58  42  55 CALM      29.94R
SHIRLEY        CLEAR     60  43  53 W8        29.96
WESTHAMPTON    CLEAR     58  41  53 W7        29.98R
MONTAUK POINT    N/A     54  42  64 VRB3      29.99R
$$

NYZ052-065-067-190200-
HUDSON VALLEY

CITY           SKY/WX    TMP DP  RH WIND       PRES   REMARKS
WHITE PLAINS   CLEAR     68  27  21 NW21G31   29.95R
NEWBURGH       CLEAR     64  30  27 NW12      30.01R
MONTGOMERY     CLEAR     67  26  21 NW15G22   30.00R
POUGHKEEPSIE   CLEAR     66  30  26 N9        30.00R
ALBANY         CLEAR     61  21  21 NW18G24   30.05R
$$

NJZ001-105-106-008-010-013-015-019>022-104-190200-
NEW JERSEY

CITY           SKY/WX    TMP DP  RH WIND       PRES   REMARKS
NEWARK/LIBERTY PTCLDY    75  35  23 N24G32    29.94R
TETERBORO      CLEAR     73  31  21 N15G24    29.94R
CALDWELL       CLEAR     71  35  26 MISG      29.96R
MORRISTOWN     CLEAR     72  37  28 N15       29.96R
SOMERVILLE     PTCLDY    75  38  26 N8        29.93R
SUSSEX         CLEAR     66  26  22 N12G23    30.03R
ANDOVER          N/A     67  35  30 N14G26    30.00R
TRENTON        MOCLDY    73  39  29 W3        29.93R
MILLVILLE      CLOUDY    62  47  57 S5        29.97R
ATLANTIC CITY  MOCLDY    63  46  54 CALM      29.96R
WRIGHTSTOWN    PTCLDY    65  45  46 S5        29.90R
TOMS RIVER     PTCLDY    63  46  55 SW5       29.95R
BELMAR         PTCLDY    66  45  45 SW8       29.93R
$$

PAZ047>061-062-071-190200-
EASTERN PENNSYLVANIA

CITY           SKY/WX    TMP DP  RH WIND       PRES   REMARKS
PHILADELPHIA   MOCLDY    72  45  37 SW8       29.95R
ALLENTOWN      PTCLDY    70  40  33 N12       29.97R
SCRANTON       PTCLDY    62  25  24 N15G22    30.05R
$$

CTZ002-004>006-009-010-012-RIZ004-006-007-MAZ004-011-015-190200-
SOUTHERN NEW ENGLAND
 IN CT

CITY           SKY/WX    TMP DP  RH WIND       PRES   REMARKS
BRADLEY INTL   CLEAR     65  30  27 NW10G20   29.97R
HARTFORD       CLEAR     66  29  24 NW9G22    29.97R
DANBURY        CLEAR     65  28  24 N9G20     29.99R
WTRBRY/OXFORD  PTCLDY    63  28  27 N10       29.99R
BRIDGEPORT     CLEAR     64  42  44 N9        29.97R
MERIDEN        CLEAR     67  26  21 NW13G23   29.97R
NEW HAVEN      CLEAR     68  30  24 N15       29.96R
CHESTER        FAIR      66  30  26 N12G20    29.96R
GROTON         CLEAR     59  42  53 W7        29.96R
WILLIMANTIC    CLEAR     67  29  24 NW13      29.96R

 IN RI

CITY           SKY/WX    TMP DP  RH WIND       PRES   REMARKS
PROVIDENCE     CLEAR     54  40  59 NE9       29.98R
BLOCK ISLAND   CLEAR     54  41  62 W12       29.96R
WESTERLY       CLEAR     58  43  57 CALM      29.96R

 IN MA

CITY           SKY/WX    TMP DP  RH WIND       PRES   REMARKS
BOSTON         CLEAR     44  41  89 NE5       30.01R
WORCESTER      FAIR      55  39  54 N7        29.99R
WESTFIELD      CLEAR     64  27  24 NW8       29.98R
PROVINCETOWN   CLEAR     43  37  81 NE8       29.98R
NANTUCKET      PTCLDY    50  42  74 NW17      29.96R
$$

ANZ330-335-338-340-345-350-353-355-190200-
COASTAL MARINE OBSERVATIONS


STATION/POSITION TIME  SKY/WX   TEMP    WIND        PRES    VSBY  WAVE
                                AIR SEA DIR/SP/G                  HT/PER
                 (UTC)          (F)     (DEG/KT/KT) (MB)    (MI)  (FT/S)
NY HARB ENTRANCE 0050            54 46  220/ 16/ 17 1012.3          3/ 4
4S FIRE IS       0003               45                N/A           4/ 4
20S FIRE ISLAND  2350               45              1012.8          3/ 3
23SW MTP         NOT AVBL
HUDSON CANYON    NOT AVBL
EXECUTION ROCKS  NOT AVBL
WESTERN LI SOUND NOT AVBL
CENTRAL LI SOUND NOT AVBL
EASTERN LI SOUND 0000            50     280/  8/ 12   N/A
ROBBINS REEF     0000            78     290/ 11/ 12 1011.0
$$


>>>>>>>>>>>>>>>>>>>>>>>>>>>> KEY <<<<<<<<<<<<<<<<<<<<<<<<<<<
>                                                          <
>     SKY/WX - SKY CONDITION/PRESENT WEATHER               <
>     TMP    - TEMPERATURE IN FAHRENHEIT                   <
>     DP     - DEWPOINT IN FAHRENHEIT                      <
>     RH     - RELATIVE HUMIDITY IN PERCENT                <
>     WIND   - DIRECTION AND SPEED IN MPH                  <
>     PRES   - MEAN SEA LEVEL PRESSURE IN INCHES OF HG     <
>     WCI    - WIND CHILL INDEX                            <
>     VSB    - VISIBILITY IN MILES                         <
>     HX     - HEAT INDEX                                  <
>     TC     - TEMPERATURE IN CELSIUS                      <
>     VRB    - VARIABLE WIND DIRECTION                     <
>                                                          <
>>>>>>>>>>>>>>>>>>>>>>>>>>>> KEY <<<<<<<<<<<<<<<<<<<<<<<<<<<




USA.gov is the U.S. government's official web portal to all federal, state and local government web resources and services.